Location: Peterborough
(44.3091°N, 78.3197°W)
Time: 17:32:44
(UTC-04:00)

Explorer 7 - Pass Details

Date: 29 March 2023
Orbit: 477 x 653 km, 50.3° (Epoch: 04 June)

Event Time Altitude Azimuth Distance (km) Brightness Sun altitude
Rises 16:25:54 0° 232° (SW) 2,946 11.6 32.0°
Reaches altitude 10° 16:28:17 10° 230° (SW) 2,021 11.2 31.7°
Maximum altitude 16:32:55 69° 148° (SSE) 665 7.7 30.9°
Drops below altitude 10° 16:37:20 10° 65° (ENE) 1,931 9.2 30.3°
Sets 16:39:33 0° 63° (ENE) 2,803 9.9 29.9°
